Flag for India Weather past 2 weeks in Dindigul, Tamil Nadu, India

Now
72 °F

Fog.


Feels Like: 69 °F
Forecast: 64 / 86 °F
Wind: 2 mph from Northeast

Location: Tiruchchirapalli

Current Time: Jan 26, 2015 at 2:23:24 AM

Latest Report: Jan 26, 2015 at 1:40 AM


Visibility: 3 mi

Pressure: 30.01 "Hg

Humidity: 88%

Dew point: 68 °F

Location of DindigulLocation

Historic Weather in Dindigul — Graph

°F

Dindigul temperature yesterday

Maximum temperature yesterday: 88 °F (at 1:40 PM)
Minimum temperature yesterday: 72 °F (at 5:40 AM)
Average temperature yesterday: 79 °F

Past Weeks' High & Low Weather Summary

 TemperatureHumidityPressure
High90 °F (Jan 17, 2:40 PM)94% (Jan 17, 1:40 AM)30.09 "Hg (Jan 17, 1:40 AM)
Low64 °F (Jan 13, 5:40 AM)35% (Jan 15, 5:40 PM)29.83 "Hg (Jan 13, 4:40 PM)
Average77 °F68%29.95 "Hg
* Reported Jan 11 12:40 AM — Jan 26 12:40 AM, Dindigul, Weather by CustomWeather, © 2014

Note: Actual official high and low records may vary slightly from our data, if they occured in-between our weather recording intervals... More about our weather records

Advertising

Dindigul weather history for previous 24 hours

 ConditionsComfort  
Time TempWeatherWind HumidityBarometerVisibility
12:40 AM
Jan 26
72 °FFog.5 mph83%30.01 "Hg3 mi
11:40 PM
Jan 25
72 °FHaze.5 mph83%30.04 "Hg3 mi
10:40 PM75 °FHaze.3 mph69%30.04 "Hg3 mi
9:40 PM75 °FPassing clouds.7 mph69%30.01 "Hg4 mi
8:40 PM75 °FPassing clouds.6 mph69%30.01 "Hg4 mi
7:40 PM79 °FPassing clouds.10 mph65%29.98 "Hg4 mi
6:40 PM82 °FPassing clouds.10 mph58%29.95 "Hg4 mi
5:40 PM84 °FPassing clouds.14 mph51%29.95 "Hg5 mi
4:40 PM88 °FPassing clouds.14 mph46%29.92 "Hg5 mi
3:40 PM88 °FPassing clouds.12 mph43%29.92 "Hg5 mi
2:40 PM88 °FPassing clouds.13 mph46%29.95 "Hg5 mi
1:40 PM88 °FPassing clouds.10 mph49%29.98 "Hg5 mi
12:40 PM86 °FScattered clouds.10 mph52%30.01 "Hg4 mi
11:40 AM84 °FScattered clouds.14 mph55%30.04 "Hg3 mi
10:40 AM82 °FScattered clouds.12 mph62%30.04 "Hg3 mi
9:40 AM79 °FScattered clouds.13 mph70%30.04 "Hg2 mi
8:40 AM75 °FHaze.12 mph74%30.04 "Hg2 mi
7:40 AM73 °FFog.7 mph83%30.01 "Hg2 mi
6:40 AM72 °FFog.5 mph94%29.98 "Hg2 mi
5:40 AM72 °FFog.7 mph94%29.98 "Hg3 mi
4:40 AM73 °FFog.9 mph94%29.95 "Hg3 mi
3:40 AM73 °FFog.9 mph94%29.95 "Hg3 mi
2:40 AM73 °FFog.6 mph94%29.95 "Hg3 mi
Weather by CustomWeather, © 2014

See weather overviewHow to use our weather pages